TimeEDT,TemperatureF,Dew PointF,Humidity,Sea Level PressureIn,VisibilityMPH,Wind Direction,Wind SpeedMPH,Gust SpeedMPH,PrecipitationIn,Events,Conditions,WindDirDegrees,DateUTC
12:56 AM,57.0,52.0,83,30.12,10.0,North,12.7,-,N/A,,Overcast,10,2012-10-08 04:56:00
1:56 AM,55.9,52.0,87,30.12,10.0,NNE,8.1,-,N/A,,Overcast,20,2012-10-08 05:56:00
2:56 AM,55.9,51.1,84,30.12,10.0,North,11.5,-,N/A,,Overcast,10,2012-10-08 06:56:00
3:56 AM,55.9,51.1,84,30.12,10.0,North,9.2,-,N/A,,Overcast,10,2012-10-08 07:56:00
4:11 AM,55.4,50.0,82,30.11,10.0,NNE,9.2,-,N/A,,Overcast,20,2012-10-08 08:11:00
4:56 AM,55.0,50.0,83,30.13,10.0,NNE,10.4,-,N/A,,Overcast,30,2012-10-08 08:56:00
5:05 AM,55.4,50.0,82,30.12,10.0,NNE,11.5,-,N/A,,Overcast,30,2012-10-08 09:05:00
5:18 AM,55.4,50.0,82,30.12,10.0,NNE,9.2,-,N/A,,Overcast,20,2012-10-08 09:18:00
5:56 AM,55.0,50.0,83,30.14,10.0,NNE,10.4,-,N/A,,Overcast,30,2012-10-08 09:56:00
6:56 AM,55.0,51.1,86,30.15,10.0,NNE,8.1,-,N/A,,Overcast,20,2012-10-08 10:56:00
7:56 AM,55.0,51.1,86,30.17,10.0,NNE,9.2,-,N/A,,Overcast,20,2012-10-08 11:56:00
8:56 AM,55.9,52.0,87,30.18,7.0,NNE,8.1,-,N/A,,Overcast,20,2012-10-08 12:56:00
9:22 AM,55.4,53.6,94,30.18,2.5,North,10.4,-,N/A,,Overcast,10,2012-10-08 13:22:00
9:37 AM,55.4,53.6,94,30.18,3.0,NNE,8.1,-,N/A,,Overcast,20,2012-10-08 13:37:00
9:56 AM,55.9,54.0,93,30.18,4.0,NNE,9.2,-,N/A,,Overcast,30,2012-10-08 13:56:00
10:49 AM,57.2,53.6,88,30.16,10.0,NNE,6.9,-,N/A,,Overcast,20,2012-10-08 14:49:00
10:56 AM,57.9,55.0,90,30.17,10.0,NNE,8.1,-,N/A,,Overcast,20,2012-10-08 14:56:00
11:56 AM,61.0,55.9,83,30.15,10.0,NE,9.2,-,N/A,,Overcast,40,2012-10-08 15:56:00
12:56 PM,63.0,57.0,81,30.12,8.0,NNE,9.2,-,0.00,Rain,Light Rain,30,2012-10-08 16:56:00
1:33 PM,64.4,57.2,77,30.09,10.0,ENE,8.1,-,0.00,,Overcast,60,2012-10-08 17:33:00
1:56 PM,66.0,57.9,75,30.09,10.0,NE,8.1,-,0.00,,Overcast,50,2012-10-08 17:56:00
2:56 PM,66.0,59.0,78,30.07,10.0,North,4.6,-,N/A,,Overcast,10,2012-10-08 18:56:00
3:56 PM,66.9,59.0,76,30.06,10.0,NNE,8.1,-,N/A,,Overcast,20,2012-10-08 19:56:00
4:56 PM,64.9,59.0,81,30.06,10.0,North,8.1,-,N/A,,Overcast,350,2012-10-08 20:56:00
5:44 PM,60.8,55.4,82,30.07,10.0,NNW,12.7,-,N/A,,Overcast,330,2012-10-08 21:44:00
5:56 PM,60.1,55.9,86,30.07,10.0,North,12.7,-,N/A,,Overcast,350,2012-10-08 21:56:00
6:42 PM,57.2,55.4,94,30.06,5.0,North,12.7,19.6,0.01,Rain,Light Rain,360,2012-10-08 22:42:00
6:56 PM,57.0,55.0,93,30.06,6.0,North,10.4,-,0.01,,Overcast,350,2012-10-08 22:56:00
7:30 PM,55.4,53.6,94,30.08,10.0,NNW,11.5,-,0.00,Rain,Light Rain,340,2012-10-08 23:30:00
7:56 PM,55.0,52.0,89,30.10,10.0,North,11.5,20.7,0.00,Rain,Light Rain,350,2012-10-08 23:56:00
8:26 PM,55.4,51.8,88,30.10,1.8,North,10.4,-,0.14,Rain,Heavy Rain,350,2012-10-09 00:26:00
8:34 PM,53.6,51.8,94,30.10,0.8,North,10.4,-,0.42,Rain,Heavy Rain,350,2012-10-09 00:34:00
8:43 PM,53.6,53.6,100,30.09,1.2,Variable,3.5,-,0.57,Rain,Heavy Rain,0,2012-10-09 00:43:00
8:48 PM,53.6,53.6,100,30.08,3.0,NE,5.8,-,0.58,Rain,Rain,50,2012-10-09 00:48:00
9:19 PM,55.4,53.6,94,30.04,7.0,ENE,12.7,-,0.04,Rain,Light Rain,60,2012-10-09 01:19:00
9:32 PM,55.4,53.6,94,30.08,10.0,NNW,5.8,-,0.05,Rain,Light Rain,340,2012-10-09 01:32:00
9:56 PM,57.0,55.0,93,30.09,10.0,North,10.4,-,0.05,,Overcast,350,2012-10-09 01:56:00
10:56 PM,57.0,54.0,89,30.09,10.0,NNW,8.1,-,N/A,,Overcast,340,2012-10-09 02:56:00
11:56 PM,57.0,54.0,89,30.08,10.0,North,9.2,-,N/A,,Overcast,350,2012-10-09 03:56:00